Location: Boulin
(43.2500°N, 0.1333°E)
Time: 06:21:11
(UTC+00:00)

SPOT 1/Viking Rocket - Pass Details

Date: 11 December 2025
Orbit: 772 x 790 km, 98.2° (Epoch: 13 January)

Event Time Altitude Azimuth Distance (km) Brightness Sun altitude
Rises 17:33:10 0° 146° (SE) 3,272 6.6 -12.2°
Reaches altitude 10° 17:35:34 10° 140° (SE) 2,348 5.8 -12.6°
Maximum altitude 17:40:27 43° 70° (ENE) 1,097 3.8 -13.4°
Drops below altitude 10° 17:45:21 10° 360° (N) 2,362 5.9 -14.3°
Sets 17:47:46 0° 354° (N) 3,294 6.7 -14.7°
